sat.trackr.live / text

‹ back to catalog

SPAINSAT

NORAD 28945 · 2006-007A

PAYLOAD ACTIVE UNKNOWN

§ Identity

Operator
Country
SPN
Launch date
2006-03-11
Launch site
FRGUI
Launch vehicle
Mass (kg)
RCS (m²)
26.70

Purposes: comms

External: N2YO · Heavens-Above · Gunter

§ Orbital elements

Epoch: 2026-09-12T02:36:22.637376Z

Period
1,436.07 min
Inclination
0.7821°
Eccentricity
0.0004758
Mean motion
1.00273377 rev/d
Perigee alt
35,766.1 km
Apogee alt
35,806.2 km
Semi-major
42,164.3 km
B*
0.0000e+0
RAAN
84.9821°
Arg perigee
89.1013°
Mean anomaly
185.9228°
Rev number
7,508

§ Raw data

SPAINSAT1 28945U 06007A   26255.10859534 -.00000232  00000+0  00000+0 0  99922 28945   0.7821  84.9821 0004758  89.1013 185.9228  1.00273377 75081

JSON: /api/v1/satellites/28945 · /tle

For live sub-satellite position, see the globe view (requires WebGL).

§ Visibility from observer

Set your observer location to see the next 7 days of passes ≥ 10°. The values pass through the URL so the page stays shareable.

No JS? Fill the form by hand. The geolocation button needs JavaScript.